When you browse on this site, cookies collect data to enhance your experience and personalize the content and advertising you see.
Visit our Privacy Policy to learn more. By continuing to use the site, you agree to this use of cookies and data.
  • In Germany
  • List of Countries
  • For 7 days
  • Water Temperature
  • Weather Map
  • Weather Widgets
  • user-avatar
    Login

    Hourly Weather Yalunina

    Today, 25 January, Saturday

    Time Temperature Precipitation Wind Pressure Humidity
    00:00 -16°C° 0 mm 4 mps 730 mmHg 85%
    01:00 -17°C° 0 mm 4 mps 730 mmHg 85%
    02:00 -17°C° 0 mm 4 mps 730 mmHg 86%
    03:00 -17°C° 0 mm 4 mps 730 mmHg 86%
    04:00 -17°C° 0 mm 4 mps 730 mmHg 87%
    05:00 -18°C° 0 mm 4 mps 730 mmHg 88%
    06:00 -17°C° 0 mm 3 mps 730 mmHg 89%
    07:00 -18°C° 0 mm 3 mps 729 mmHg 90%
    08:00 -18°C° 0 mm 3 mps 729 mmHg 89%
    09:00 -17°C° 0 mm 3 mps 730 mmHg 89%
    10:00 -17°C° 0 mm 3 mps 729 mmHg 88%
    11:00 -16°C° 0 mm 3 mps 729 mmHg 87%
    12:00 -15°C° 0 mm 3 mps 729 mmHg 86%
    13:00 -14°C° 0 mm 3 mps 729 mmHg 86%
    14:00 -14°C° 0 mm 3 mps 729 mmHg 88%
    15:00 -14°C° 0 mm 3 mps 729 mmHg 91%
    16:00 -13°C° 0 mm 2 mps 728 mmHg 94%
    17:00 -14°C° 0 mm 2 mps 728 mmHg 94%
    18:00 -14°C° 0 mm 2 mps 728 mmHg 94%
    19:00 -14°C° 0 mm 2 mps 727 mmHg 95%
    20:00 -15°C° 0 mm 3 mps 727 mmHg 94%
    21:00 -15°C° 0 mm 3 mps 726 mmHg 93%
    22:00 -15°C° 0 mm 3 mps 726 mmHg 93%
    23:00 -14°C° 0 mm 3 mps 726 mmHg 93%

    Tomorrow, 26 January, Sunday

    Time Temperature Precipitation Wind Pressure Humidity
    00:00 -14°C° 0 mm 3 mps 726 mmHg 93%
    01:00 -14°C° 0 mm 3 mps 726 mmHg 93%
    02:00 -14°C° 0 mm 3 mps 726 mmHg 93%
    03:00 -14°C° 0 mm 3 mps 726 mmHg 93%
    04:00 -14°C° 0 mm 3 mps 725 mmHg 93%
    05:00 -14°C° 0 mm 3 mps 725 mmHg 94%
    06:00 -13°C° 0 mm 3 mps 725 mmHg 94%
    07:00 -13°C° 0 mm 3 mps 725 mmHg 94%
    08:00 -10°C° 0.1 mm 2 mps 725 mmHg 94%
    09:00 -10°C° 0.1 mm 2 mps 725 mmHg 94%
    10:00 -8°C° 0.1 mm 1 mps 725 mmHg 94%
    11:00 -8°C° 0.1 mm 1 mps 725 mmHg 93%
    12:00 -7°C° 0.1 mm 1 mps 725 mmHg 92%
    13:00 -6°C° 0.1 mm 1 mps 725 mmHg 91%
    14:00 -7°C° 0 mm 1 mps 725 mmHg 92%
    15:00 -8°C° 0 mm 1 mps 725 mmHg 94%
    16:00 -8°C° 0 mm 1 mps 725 mmHg 95%
    17:00 -9°C° 0 mm 1 mps 725 mmHg 95%
    18:00 -12°C° 0 mm 2 mps 725 mmHg 95%
    19:00 -12°C° 0 mm 2 mps 726 mmHg 96%
    20:00 -12°C° 0 mm 2 mps 726 mmHg 96%
    21:00 -13°C° 0 mm 2 mps 726 mmHg 96%
    22:00 -13°C° 0 mm 2 mps 726 mmHg 96%
    23:00 -14°C° 0 mm 2 mps 727 mmHg 95%

    Day after tomorrow, 27 January, Monday

    Time Temperature Precipitation Wind Pressure Humidity
    00:00 -14°C° 0 mm 2 mps 727 mmHg 95%
    01:00 -14°C° 0 mm 2 mps 727 mmHg 95%
    02:00 -15°C° 0.1 mm 2 mps 727 mmHg 95%
    03:00 -15°C° 0.1 mm 2 mps 728 mmHg 95%
    04:00 -15°C° 0.1 mm 2 mps 728 mmHg 95%
    05:00 -15°C° 0 mm 2 mps 728 mmHg 94%
    06:00 -15°C° 0 mm 2 mps 729 mmHg 93%
    07:00 -16°C° 0 mm 3 mps 729 mmHg 92%
    08:00 -16°C° 0 mm 3 mps 729 mmHg 91%
    09:00 -16°C° 0 mm 3 mps 730 mmHg 89%
    10:00 -17°C° 0 mm 4 mps 730 mmHg 88%
    11:00 -17°C° 0 mm 4 mps 730 mmHg 87%
    12:00 -17°C° 0 mm 4 mps 731 mmHg 86%
    13:00 -17°C° 0 mm 4 mps 731 mmHg 85%
    14:00 -18°C° 0 mm 4 mps 731 mmHg 87%
    15:00 -18°C° 0 mm 3 mps 731 mmHg 88%
    16:00 -19°C° 0 mm 3 mps 732 mmHg 90%
    17:00 -19°C° 0 mm 3 mps 732 mmHg 91%
    18:00 -21°C° 0 mm 3 mps 732 mmHg 92%
    19:00 -22°C° 0 mm 3 mps 733 mmHg 93%
    20:00 -22°C° 0 mm 3 mps 733 mmHg 93%
    21:00 -21°C° 0 mm 2 mps 734 mmHg 93%
    22:00 -21°C° 0 mm 2 mps 734 mmHg 93%
    23:00 -21°C° 0 mm 2 mps 735 mmHg 93%

    28 January, Tuesday

    Time Temperature Precipitation Wind Pressure Humidity
    00:00 -23°C° 0 mm 3 mps 735 mmHg 93%
    01:00 -23°C° 0 mm 3 mps 736 mmHg 93%
    02:00 -24°C° 0 mm 3 mps 736 mmHg 93%
    03:00 -25°C° 0 mm 3 mps 737 mmHg 94%
    04:00 -25°C° 0 mm 3 mps 738 mmHg 94%
    05:00 -25°C° 0 mm 3 mps 738 mmHg 94%
    06:00 -26°C° 0 mm 3 mps 739 mmHg 93%
    07:00 -26°C° 0 mm 3 mps 740 mmHg 93%
    08:00 -26°C° 0 mm 3 mps 741 mmHg 92%
    09:00 -25°C° 0 mm 3 mps 742 mmHg 90%
    10:00 -25°C° 0 mm 4 mps 743 mmHg 88%
    11:00 -24°C° 0 mm 4 mps 743 mmHg 87%
    12:00 -23°C° 0 mm 4 mps 744 mmHg 86%
    13:00 -22°C° 0 mm 4 mps 745 mmHg 85%
    14:00 -23°C° 0 mm 4 mps 745 mmHg 86%
    15:00 -23°C° 0 mm 4 mps 746 mmHg 87%
    16:00 -24°C° 0 mm 4 mps 746 mmHg 88%
    17:00 -24°C° 0 mm 4 mps 747 mmHg 88%
    18:00 -25°C° 0 mm 4 mps 748 mmHg 88%
    19:00 -25°C° 0 mm 4 mps 748 mmHg 89%
    20:00 -26°C° 0 mm 4 mps 749 mmHg 89%
    21:00 -26°C° 0 mm 4 mps 750 mmHg 90%
    22:00 -27°C° 0 mm 4 mps 750 mmHg 90%
    23:00 -27°C° 0 mm 4 mps 751 mmHg 90%

    29 January, Wednesday

    Time Temperature Precipitation Wind Pressure Humidity
    00:00 -29°C° 0 mm 4 mps 751 mmHg 91%
    01:00 -27°C° 0 mm 3 mps 751 mmHg 91%
    02:00 -27°C° 0 mm 3 mps 752 mmHg 91%
    03:00 -27°C° 0 mm 3 mps 752 mmHg 92%
    04:00 -25°C° 0 mm 2 mps 752 mmHg 92%
    05:00 -25°C° 0 mm 2 mps 752 mmHg 91%
    06:00 -24°C° 0 mm 2 mps 752 mmHg 91%
    07:00 -24°C° 0 mm 2 mps 752 mmHg 90%
    08:00 -21°C° 0 mm 2 mps 752 mmHg 88%
    09:00 -20°C° 0 mm 2 mps 752 mmHg 86%
    10:00 -21°C° 0 mm 3 mps 752 mmHg 84%
    11:00 -19°C° 0.1 mm 3 mps 752 mmHg 86%
    12:00 -18°C° 0.1 mm 3 mps 752 mmHg 89%
    13:00 -17°C° 0.1 mm 3 mps 751 mmHg 91%
    14:00 -16°C° 0.1 mm 3 mps 751 mmHg 92%
    15:00 -16°C° 0.1 mm 3 mps 751 mmHg 92%
    16:00 -16°C° 0.1 mm 3 mps 750 mmHg 92%
    17:00 -17°C° 0 mm 3 mps 750 mmHg 93%
    18:00 -16°C° 0 mm 2 mps 750 mmHg 94%
    19:00 -16°C° 0 mm 2 mps 750 mmHg 94%
    20:00 -15°C° 0.1 mm 2 mps 750 mmHg 95%
    21:00 -15°C° 0.1 mm 2 mps 750 mmHg 95%
    22:00 -14°C° 0.1 mm 2 mps 750 mmHg 96%
    23:00 -12°C° 0.1 mm 1 mps 750 mmHg 96%

    30 January, Thursday

    Time Temperature Precipitation Wind Pressure Humidity
    00:00 -11°C° 0.1 mm 1 mps 750 mmHg 96%
    01:00 -11°C° 0.1 mm 1 mps 751 mmHg 95%
    02:00 -11°C° 0.1 mm 1 mps 751 mmHg 96%
    03:00 -11°C° 0.1 mm 1 mps 751 mmHg 96%
    04:00 -11°C° 0.1 mm 1 mps 751 mmHg 96%
    05:00 -11°C° 0.1 mm 1 mps 751 mmHg 96%
    06:00 -11°C° 0.1 mm 1 mps 751 mmHg 96%
    07:00 -11°C° 0.1 mm 1 mps 751 mmHg 96%
    08:00 -10°C° 0.1 mm 1 mps 751 mmHg 95%
    09:00 -10°C° 0.1 mm 1 mps 751 mmHg 94%
    10:00 -10°C° 0.1 mm 1 mps 751 mmHg 93%
    11:00 -9°C° 0 mm 1 mps 751 mmHg 91%
    12:00 -8°C° 0 mm 1 mps 751 mmHg 90%
    13:00 -8°C° 0 mm 1 mps 751 mmHg 88%
    14:00 -8°C° 0 mm 1 mps 751 mmHg 90%
    15:00 -9°C° 0 mm 1 mps 751 mmHg 91%
    16:00 -10°C° 0 mm 1 mps 751 mmHg 93%
    17:00 -10°C° 0 mm 1 mps 751 mmHg 93%
    18:00 -10°C° 0 mm 1 mps 752 mmHg 94%
    19:00 -11°C° 0 mm 1 mps 752 mmHg 95%
    20:00 -11°C° 0 mm 1 mps 752 mmHg 95%
    21:00 -11°C° 0 mm 1 mps 751 mmHg 95%
    22:00 -12°C° 0 mm 1 mps 751 mmHg 96%
    23:00 -12°C° 0 mm 1 mps 751 mmHg 96%
    Show more